Probability
0 0 0 0 0 0 0 0 0 0 0 0 0 0 0 0 0 0 0 0 0 0 0 0 0 0 0 0 0 0 0 0 0 0 0 0 0 0 0 0 0 0 0 0
0 0 0 0 0 0 0 0 0 0 0 0 0 0 0 0 0 0 0 0 0 0 0 0 0 0 0 0 0 0 0 0 0 0 0 0 0 0 0 0 0 0 0 0
0 0 0 0 0 0 0 0 0 0 0 0 0 0 0 0 0 0 0 0 0 0 0 0 0 0 0 0 0 0 0 0 0 0 0 0 0 0 0 0 0 0 0 0
0 0 0 0 0 0 0 0 0 0 0 0 0 0 0 0 0 0 0 0 0 0 0 0 0 0 0 0 0 0 0 0 0 0 0 0 0 0 0 0 0 0 0 0
0 0 0 0 0 0 0 0 0 0 0 0 0 0 0 0 0 0 0 0 0 0 0 0 0 0 0 0 0 0 0 0 0 0 0 0 0 0 0 0 0 0 0 0
0 0 0 0 0 0 0 0 0 0 0 0 0 0 0 0 0 0 0 0 0 0 0 0 0 0 0 0 0 0 0 0 0 0 0 0 0 0 0 0 0 0 0 0
0 0 0 0 0 0 0 0 0 0 0 0 0 0 0 0 0 0 0 0 0 0 0 0 0 0 0 0 0 0 0 0 0 0 0 0 0 0 0 0 0 0 0 0
0 0 0 0 0 0 0 0 0 0 0 0 0 0 0 0 0 0 0 0 0 0 0 0 0 0 0 0 0 0 0 0 0 0 0 0 0 0 0 0 0 0 0 0
0 0 0 0 0 0 0 0 0 0 0 0 0 0 0 0 0 0 0 0 0 0 0 0 0 0 0 0 0 0 0 0 0 0 0 0 0 0 0 0 0 0 0 0
0 0 0 0 0 0 0 0 0 0 0 0 0 0 0 0 0 0 0 0 0 0 0 0 0 0 0 0 0 0 0 0 0 0 0 0 0 0 0 0 0 0 0 0
0 0 0 0 0 0 0 0 0 0 0 0 0 0 0 0 0 0 0 0 0 0 0 0 0 0 0 0 0 0 0 0 0 0 0 0 0 0 0 0 0 0 0 0
0 0 0 0 0 0 0 0 0 0 0 0 0 0 0 0 0 0 0 0 0 0 0 0 0 0 0 0 0 0 0 0 0 0 0 0 0 0 0 0 0 0 0 0
0 0 0 0 0 0 0 0 0 0 0 0 0 0 0 0 0 0 0 0 0 0 0 0 0 0 0 0 0 0 0 0 0 0 0 0 0 0 0 0 0 0 0 0
0 0 0 0 0 0 0 0 0 0 0 0 0 0 0 0 0 0 0 0 0 0 0 0 0 0 0 0 0 0 0 0 0 0 0 0 0 0 0 0 0 0 0 0
0 0 0 0 0 0 0 0 0 0 0 0 0 0 0 0 0 0 0 0 0 0 0 0 0 0 0 0 0 0 0 0 0 0 0 0 0 0 0 0 0 0 0 0
0 0 0 0 0 0 0 0 0 0 0 0 0 0 0 0 0 0 0 0 0 0 0 0 0 0 0 0 0 0 0 0 0 0 0 0 0 0 0 0 0 0 0 0
0 0 0 0 0 0 0 0 0 0 0 0 0 0 0 0 0 0 0 0 0 0 0 0 0 0 0 0 0 0 0 0 0 0 0 0 0 0 0 0 0 0 0 0
0 0 0 0 0 0 0 0 0 0 0 0 0 0 0 0 0 0 0 0 0 0 0 0 0 0 0 0 0 0 0 0 0 0 0 0 0 0 0 0 0 0 0 0
0 0 0 0 0 0 0 0 0 0 0 0 0 0 0 0 0 0 0 0 0 0 0 0 0 0 0 0 0 0 0 0 0 0 0 0 0 0 0 0 0 0 0 0
0 0 0 0 0 0 0 0 0 0 0 0 0 0 0 0 0 0 0 0 0 0 0 0 0 0 0 0 0 0 0 0 0 0 0 0 0 0 0 0 0 0 0 0
0 0 0 0 0 0 0 0 0 0 0 0 0 0 0 0 0 0 0 0 0 0 0 0 0 0 0 0 0 0 0 0 0 0 0 0 0 0 0 0 0 0 0 0
0 0 0 0 0 0 0 0 0 0 0 0 0 0 0 0 0 0 0 0 0 0 0 0 0 0 0 0 0 0 0 0 0 0 0 0 0 0 0 0 0 0 0 0
0 0 0 0 0 0 0 0 0 0 0 0 0 0 0 0 0 0 0 0 0 0 0 0 0 0 0 0 0 0 0 0 0 0 0 0 0 0 0 0 0 0 0 0
0 0 0 0 0 0 0 0 0 0 0 0 0 0 0 0 0 0 0 0 0 0 0 0 0 0 0 0 0 0 0 0 0 0 0 0 0 0 0 0 0 0 0 0
0 0 0 0 0 0 0 0 0 0 0 0 0 0 0 0 0 0 0 0 0 0 0 0 0 0 0 0 0 0 0 0 0 0 0 0 0 0 0 0 0 0 0 0
0 0 0 0 0 0 0 0 0 0 0 0 0 0 0 0 0 0 0 0 0 0 0 0 0 0 0 0 0 0 0 0 0 0 0 0 0 0 0 0 0 0 0 0
0 0 0 0 0 0 0 0 0 0 0 0 0 0 0 0 0 0 0 0 0 0 0 0 0 0 0 0 0 0 0 0 0 0 0 0 0 0 0 0 0 0 0 0
Height
5884 5885 5886 5887 5888 5887 5887 5887 5886 5885 5883 5881 5878 5876 5873 5869 5865 5861 5857 5852 5847 5841 5836 5830 5824 5818 5812 5806 5800 5794 5788 5781 5775 5768 5762 5756 5751 5746 5741 5737 5733 5730 5727 5725
5883 5884 5885 5886 5886 5886 5886 5885 5885 5883 5882 5880 5878 5875 5872 5869 5865 5861 5857 5853 5848 5843 5837 5832 5826 5820 5815 5809 5803 5797 5791 5785 5778 5772 5765 5759 5754 5749 5744 5739 5735 5732 5729 5726
5882 5882 5883 5885 5885 5885 5884 5884 5883 5882 5882 5879 5877 5874 5871 5868 5865 5861 5857 5853 5849 5844 5839 5833 5828 5822 5817 5811 5806 5800 5794 5788 5782 5775 5769 5763 5757 5752 5747 5742 5738 5734 5730 5727
5880 5882 5883 5885 5883 5883 5883 5882 5881 5880 5879 5878 5876 5873 5871 5868 5865 5861 5857 5854 5849 5845 5840 5835 5830 5825 5819 5814 5809 5803 5797 5791 5785 5779 5773 5767 5760 5755 5750 5745 5740 5736 5732 5728
5879 5879 5880 5881 5881 5881 5881 5880 5880 5878 5877 5876 5874 5872 5870 5867 5864 5861 5857 5853 5849 5845 5841 5836 5831 5826 5821 5816 5811 5806 5800 5795 5789 5783 5777 5771 5765 5759 5753 5748 5743 5739 5734 5731
5877 5877 5878 5880 5879 5878 5879 5878 5878 5876 5875 5874 5872 5871 5869 5866 5863 5860 5856 5853 5849 5845 5841 5837 5832 5828 5823 5818 5813 5808 5803 5797 5792 5786 5781 5775 5769 5763 5757 5752 5747 5743 5738 5734
5874 5875 5875 5876 5876 5877 5878 5877 5875 5874 5873 5871 5870 5869 5867 5864 5861 5858 5855 5852 5849 5845 5841 5837 5833 5829 5824 5820 5815 5810 5805 5800 5795 5789 5784 5779 5773 5767 5762 5757 5752 5747 5742 5738
5871 5872 5874 5873 5873 5874 5874 5872 5872 5871 5870 5869 5867 5866 5864 5861 5859 5857 5854 5851 5848 5844 5841 5837 5833 5829 5825 5821 5816 5812 5807 5802 5797 5792 5787 5782 5777 5772 5766 5761 5756 5752 5748 5744
5869 5870 5870 5869 5869 5870 5869 5869 5868 5867 5866 5865 5864 5862 5860 5858 5856 5854 5851 5849 5846 5843 5839 5836 5832 5829 5825 5821 5817 5812 5808 5804 5799 5794 5790 5785 5780 5775 5771 5766 5761 5757 5752 5749
5864 5865 5865 5865 5865 5865 5865 5865 5864 5863 5862 5861 5860 5858 5857 5855 5853 5851 5848 5846 5843 5840 5837 5834 5831 5827 5824 5820 5817 5813 5809 5805 5800 5796 5792 5787 5783 5779 5774 5770 5766 5761 5757 5753
5860 5860 5861 5861 5861 5861 5860 5860 5859 5858 5857 5856 5855 5854 5852 5850 5849 5847 5845 5842 5840 5837 5834 5832 5828 5825 5822 5819 5816 5812 5808 5805 5801 5797 5793 5789 5785 5781 5777 5773 5769 5765 5761 5758
5855 5855 5856 5856 5855 5855 5855 5854 5854 5853 5852 5851 5850 5849 5847 5845 5843 5842 5840 5838 5835 5833 5831 5828 5825 5822 5820 5817 5814 5811 5807 5804 5801 5797 5794 5790 5786 5783 5779 5775 5771 5768 5764 5761
5849 5849 5849 5849 5849 5849 5848 5848 5847 5847 5846 5845 5844 5843 5841 5840 5838 5836 5834 5832 5830 5828 5826 5823 5821 5818 5816 5813 5811 5808 5805 5802 5799 5796 5793 5790 5787 5783 5780 5777 5773 5770 5767 5763
5841 5842 5842 5842 5842 5842 5841 5841 5840 5840 5839 5838 5837 5836 5835 5833 5831 5829 5828 5826 5824 5822 5820 5818 5816 5813 5811 5809 5807 5804 5802 5799 5797 5794 5791 5789 5786 5783 5780 5777 5774 5771 5768 5765
5834 5834 5834 5834 5834 5834 5834 5833 5833 5832 5831 5830 5829 5828 5827 5825 5824 5822 5820 5819 5817 5815 5813 5811 5809 5807 5805 5804 5802 5799 5797 5795 5793 5791 5788 5786 5784 5781 5779 5776 5773 5771 5768 5766
5825 5825 5826 5826 5826 5825 5825 5825 5824 5823 5822 5821 5820 5819 5818 5816 5815 5813 5812 5810 5809 5807 5805 5803 5802 5800 5798 5797 5795 5793 5792 5790 5788 5786 5784 5782 5780 5778 5776 5774 5771 5769 5767 5765
5816 5816 5816 5816 5816 5816 5815 5815 5814 5814 5813 5812 5811 5809 5808 5807 5805 5804 5802 5800 5799 5797 5796 5794 5793 5791 5790 5789 5787 5786 5785 5783 5781 5780 5778 5777 5775 5773 5772 5770 5768 5766 5765 5763
5806 5806 5806 5805 5805 5805 5804 5804 5803 5803 5802 5801 5800 5798 5797 5796 5794 5793 5791 5790 5788 5786 5784 5783 5782 5781 5779 5778 5777 5777 5776 5775 5773 5772 5771 5770 5769 5767 5766 5765 5763 5762 5761 5759
5795 5795 5795 5795 5794 5794 5793 5792 5792 5791 5790 5789 5788 5786 5785 5783 5782 5780 5779 5777 5776 5775 5773 5771 5770 5769 5768 5767 5766 5765 5765 5764 5764 5763 5762 5762 5761 5760 5759 5758 5757 5756 5755 5754
5783 5783 5783 5783 5782 5782 5781 5780 5779 5778 5777 5776 5775 5773 5771 5770 5768 5767 5766 5764 5762 5761 5760 5759 5757 5756 5755 5754 5753 5753 5753 5752 5752 5752 5752 5751 5751 5750 5750 5749 5749 5748 5748 5747
5770 5770 5770 5770 5769 5769 5768 5767 5766 5765 5763 5762 5761 5759 5758 5756 5754 5753 5751 5750 5748 5746 5745 5744 5743 5741 5740 5739 5739 5739 5738 5739 5739 5739 5739 5739 5739 5739 5739 5739 5739 5739 5739 5739
5757 5757 5756 5756 5755 5755 5754 5753 5752 5751 5749 5748 5746 5745 5743 5742 5740 5738 5736 5734 5733 5731 5730 5728 5726 5725 5724 5723 5723 5723 5723 5723 5723 5724 5725 5725 5726 5727 5727 5727 5728 5728 5729 5729
5743 5743 5743 5742 5741 5740 5739 5738 5737 5736 5735 5733 5732 5730 5728 5726 5724 5723 5721 5718 5716 5714 5712 5711 5709 5708 5706 5706 5705 5705 5705 5705 5706 5707 5708 5709 5710 5712 5713 5714 5715 5716 5716 5717
5729 5729 5729 5728 5727 5726 5725 5724 5723 5721 5720 5718 5716 5714 5712 5710 5707 5704 5702 5700 5698 5696 5694 5692 5690 5689 5687 5686 5686 5685 5685 5686 5687 5688 5690 5691 5693 5695 5697 5698 5700 5701 5702 5704
5715 5715 5714 5714 5713 5712 5711 5709 5707 5705 5703 5701 5699 5696 5694 5692 5690 5687 5684 5681 5679 5676 5674 5672 5670 5668 5666 5665 5664 5664 5664 5664 5665 5667 5669 5671 5673 5675 5678 5680 5683 5685 5687 5689
5700 5700 5700 5699 5698 5697 5695 5693 5691 5689 5686 5684 5681 5678 5676 5673 5670 5667 5664 5661 5658 5655 5653 5650 5648 5646 5644 5643 5642 5641 5641 5641 5642 5644 5646 5649 5651 5654 5657 5660 5663 5666 5669 5672
5686 5685 5685 5684 5682 5681 5679 5677 5675 5672 5670 5667 5664 5661 5657 5654 5650 5647 5643 5640 5636 5633 5630 5627 5625 5622 5620 5619 5618 5617 5617 5617 5618 5620 5623 5625 5628 5632 5635 5638 5642 5645 5649 5652
Wind_Speed
8 7 6 4 3 3 4 5 6 8 9 11 13 15 16 18 19 20 22 23 25 26 27 28 29 29 30 30 31 32 32 32 31 30 29 27 26 24 22 21 18 15 12 9
8 7 6 5 4 4 4 6 7 8 10 11 12 14 15 17 18 20 21 22 24 25 27 28 28 28 29 29 30 31 32 32 32 31 30 29 27 24 23 21 20 17 16 13
7 7 6 5 5 5 5 6 7 8 9 11 12 14 15 16 18 19 20 21 22 24 25 27 27 28 28 28 29 30 31 31 32 32 32 30 28 25 24 22 21 19 17 15
7 7 7 6 6 6 6 7 8 9 10 11 12 13 14 16 17 18 19 20 21 23 24 25 26 27 27 28 28 29 30 31 31 32 33 32 30 28 25 24 23 20 18 16
7 7 7 6 6 6 7 8 8 9 10 11 12 13 14 15 16 17 18 19 20 21 23 24 25 25 26 27 28 28 29 30 31 31 32 32 31 29 27 25 25 23 20 18
8 7 7 7 7 7 8 9 9 10 11 11 12 13 14 15 16 17 18 19 20 20 22 23 24 24 25 25 26 27 28 28 29 30 30 31 30 29 28 27 26 24 23 21
9 9 10 9 9 9 10 10 11 11 11 12 13 14 14 15 16 16 17 18 19 20 21 22 22 23 24 24 25 26 27 27 27 28 28 29 29 29 28 27 26 25 23 22
12 12 12 11 11 11 12 12 12 13 13 14 14 15 15 16 16 17 17 18 19 20 20 21 22 22 23 23 24 25 25 26 26 26 27 27 27 27 27 27 26 25 24 22
14 14 13 13 13 14 14 14 14 14 15 15 16 16 17 17 17 18 18 18 19 20 20 21 21 22 22 23 23 23 24 25 25 25 25 25 25 25 25 25 25 24 23 22
16 16 15 15 16 16 16 16 16 17 17 18 18 18 19 19 19 19 19 20 20 20 21 21 21 21 21 22 22 23 23 23 24 24 23 23 23 23 23 23 23 22 22 21
18 17 18 18 18 18 18 19 19 19 20 20 20 20 21 21 21 21 21 21 21 21 21 21 21 21 21 21 22 22 22 22 22 22 22 22 21 21 21 21 21 20 20 20
20 20 20 20 20 21 21 21 21 22 22 22 22 22 23 23 23 23 23 23 23 23 22 22 22 22 22 22 22 22 22 21 21 21 21 21 20 20 19 19 19 19 18 18
22 22 23 23 23 23 24 24 24 24 24 24 24 24 25 25 25 25 25 25 24 24 24 24 23 23 23 22 22 22 22 21 21 20 20 20 19 19 18 18 17 17 17 17
25 25 25 25 25 26 26 27 27 27 27 28 28 28 28 28 28 28 28 28 27 27 27 26 26 25 25 24 23 23 22 22 21 20 20 19 19 18 17 17 16 15 15 15
28 28 28 28 29 29 29 29 30 30 31 31 31 31 31 31 31 31 31 31 30 30 29 29 29 28 27 26 25 24 24 23 22 21 21 20 19 18 17 16 15 15 14 13
31 31 31 31 32 32 32 32 33 33 34 34 34 34 34 34 34 34 34 34 33 33 33 32 32 31 30 29 28 27 26 25 24 23 22 21 20 19 18 17 16 15 14 13
33 34 34 35 35 36 36 36 36 36 37 37 37 37 37 37 37 37 37 37 37 37 36 36 36 35 34 33 31 30 29 28 27 26 25 24 22 21 20 19 18 16 15 14
36 37 37 38 38 39 39 39 39 39 39 39 40 40 40 40 40 40 40 40 40 40 40 40 39 38 37 37 35 34 32 31 30 29 28 26 25 24 23 21 20 19 17 16
39 39 40 40 41 41 41 42 42 42 43 43 44 44 44 44 44 44 43 43 43 42 42 42 42 42 41 40 39 38 36 35 34 32 31 30 28 27 26 24 23 22 20 19
41 42 42 42 43 43 44 45 45 46 46 47 47 48 48 48 48 47 47 47 46 46 45 45 45 44 44 44 43 42 40 39 38 36 35 34 32 31 29 28 26 25 23 22
43 44 44 45 45 46 47 47 48 49 49 49 49 49 49 49 49 49 48 48 48 49 48 48 48 47 47 47 46 46 44 43 42 41 39 38 37 35 33 32 30 28 27 26
45 45 46 46 46 47 48 48 48 48 48 48 48 48 49 49 49 50 50 50 50 50 50 50 50 50 49 49 49 48 48 47 46 45 44 42 41 40 38 36 34 33 31 30
45 45 45 46 46 46 46 46 46 47 48 48 49 50 51 51 52 52 52 52 53 53 53 53 53 53 53 52 52 51 51 51 50 49 48 47 46 44 43 41 39 37 35 34
44 45 45 45 45 46 46 47 48 49 50 51 52 52 53 53 54 54 55 55 55 55 56 56 56 56 56 56 55 55 54 54 54 53 53 52 50 49 47 46 44 42 40 39
44 44 45 45 46 47 48 49 50 51 52 52 53 54 55 55 56 56 57 58 58 58 58 58 58 58 58 58 58 58 57 57 57 57 56 55 54 53 52 51 49 47 45 43
44 44 45 46 47 47 48 49 50 51 52 53 54 55 56 57 57 58 59 60 60 60 60 60 60 60 60 60 60 60 60 60 60 60 59 58 58 57 56 55 54 52 51 49
44 44 45 45 46 47 48 49 50 51 52 53 54 55 56 57 58 59 60 60 61 61 61 61 60 60 60 59 60 60 61 61 62 62 62 61 61 60 59 59 58 56 55 53
Wind_Direction
209 209 214 228 253 283 312 330 340 345 350 355 358 359 1 3 4 5 7 8 10 11 11 12 14 15 16 17 18 19 20 20 20 20 19 19 19 21 21 21 19 17 11 1
210 212 221 237 256 274 297 315 329 338 343 347 350 353 357 359 1 3 5 7 9 10 11 12 13 15 16 16 17 18 19 20 20 21 20 20 20 20 20 19 18 16 14 10
213 221 230 244 260 276 291 304 317 327 335 340 346 350 352 355 358 0 2 5 7 8 10 12 14 15 16 16 16 17 18 19 20 21 21 21 22 21 21 21 19 17 14 13
220 229 239 249 262 274 286 297 308 318 327 333 338 344 348 351 354 357 359 2 4 6 8 10 12 14 15 16 16 17 18 19 20 21 21 22 22 23 23 23 21 20 19 19
226 235 244 250 259 272 283 293 302 311 319 325 332 337 342 345 348 351 354 357 0 2 5 7 9 11 12 14 14 15 16 17 19 20 21 22 23 24 24 24 23 23 24 24
234 242 250 255 263 273 281 288 297 305 312 318 324 330 335 338 342 346 349 353 355 358 360 2 4 7 9 10 11 13 14 15 16 18 20 21 22 25 26 26 26 26 28 30
243 249 255 260 267 272 277 286 293 300 306 311 316 322 328 332 335 339 342 346 349 352 354 356 359 1 4 6 8 9 11 12 13 15 17 19 20 23 25 26 27 29 31 32
249 254 259 265 268 271 277 282 287 293 299 304 310 315 319 323 327 331 334 337 341 344 347 350 352 355 358 0 2 5 7 9 10 12 14 16 18 20 22 25 27 29 32 34
254 259 265 268 271 273 276 280 284 289 294 298 303 307 311 314 318 322 325 328 332 335 338 342 345 348 351 354 356 358 1 4 6 8 10 12 15 17 20 23 25 28 31 33
258 262 266 269 272 274 276 279 282 285 290 294 298 301 305 308 311 315 318 320 323 326 329 332 336 340 343 346 349 352 354 357 0 3 5 8 11 14 16 19 22 26 29 32
261 264 267 269 272 274 276 278 280 283 286 289 293 296 299 302 305 308 311 313 316 318 321 324 327 330 334 337 340 343 346 350 353 356 359 2 4 7 10 14 17 19 22 26
263 265 267 269 271 272 274 276 279 282 284 287 290 292 295 298 300 302 304 307 309 312 314 316 319 321 325 328 330 334 337 340 343 347 350 354 357 0 3 6 10 13 15 18
264 265 267 269 270 271 273 275 277 280 282 285 287 290 292 294 296 298 300 302 304 306 307 309 311 313 316 319 321 324 327 330 332 336 339 343 347 351 354 358 2 6 9 13
265 267 268 270 271 271 273 274 276 278 281 283 285 287 289 291 293 294 296 297 299 301 302 304 305 306 308 310 312 314 317 319 322 324 327 331 334 338 342 345 350 354 359 3
265 267 269 270 271 272 274 275 277 279 281 283 285 286 288 289 291 292 293 294 296 297 298 299 300 300 302 303 305 306 307 309 312 314 315 318 321 325 328 331 334 338 342 348
266 268 269 270 272 273 275 276 278 279 281 282 284 285 286 287 288 289 290 291 292 293 293 294 294 295 296 297 298 299 300 301 302 304 306 307 309 311 314 317 319 321 325 328
268 269 270 271 273 274 276 277 278 280 281 282 283 284 285 286 287 287 288 289 289 290 290 290 290 291 292 292 292 292 293 294 294 295 296 298 299 300 302 303 305 307 308 310
267 269 271 272 274 275 276 277 279 280 281 282 283 284 285 285 286 286 286 287 287 287 287 287 287 287 287 287 287 287 287 287 288 288 289 290 291 292 292 293 293 294 295 295
267 269 271 272 273 275 276 277 278 279 281 282 283 284 284 285 285 285 286 286 285 285 285 285 285 285 285 284 284 283 282 282 282 282 283 283 284 284 285 285 286 285 285 285
268 269 271 272 273 274 276 277 278 279 280 281 282 283 283 284 284 284 284 284 284 284 284 283 283 282 282 281 281 280 279 278 277 277 277 277 278 278 278 279 279 279 278 278
268 269 271 272 273 274 275 276 277 278 279 280 281 282 283 283 284 284 284 283 283 284 284 283 282 281 280 279 278 277 277 276 274 273 273 273 273 272 272 273 273 273 272 272
268 270 271 272 273 275 276 277 278 279 280 281 282 283 283 284 284 284 284 284 283 282 282 282 281 281 280 278 277 275 274 273 272 271 270 269 269 268 268 268 268 268 268 267
269 270 271 273 274 275 276 277 278 280 281 282 283 283 284 285 285 285 285 285 285 284 283 282 281 279 278 277 276 274 273 271 270 268 267 266 265 265 265 264 264 264 264 264
269 270 272 273 274 276 277 278 279 281 282 283 284 284 285 285 286 286 286 286 285 285 284 282 281 280 278 276 275 273 271 269 268 266 265 264 263 262 261 261 261 261 260 260
270 271 273 274 276 277 279 280 281 283 284 285 285 286 286 287 287 287 287 287 286 286 285 283 282 280 278 276 274 272 269 267 265 264 262 261 260 259 259 258 258 258 258 258
272 273 275 276 278 280 281 283 284 285 286 287 288 288 289 289 289 289 289 289 288 287 286 285 283 281 279 277 274 272 269 266 263 261 260 259 258 257 256 256 255 255 255 255
273 275 277 279 280 282 283 285 286 287 288 289 289 290 291 291 291 291 291 291 290 289 289 287 286 283 281 278 275 272 269 266 262 260 258 257 256 256 255 254 253 253 253 253